This demonstration page uses our WeatherBlox Daily Observations layout. Learn more.

Left ArrowRight Arrow

36.17497, -115.13722

Hourly Observations for January 15, 2021

Temp ( °F °C ) Dew Point ( °F °C ) Humidity (%) Winds ( mph kmh ) Pressure ( in mb ) Visibility ( mi km ) Precip ( " mm )
12:53 am 00:53 Clear 48 8.9 23 -5 37 37 WNW 5 7 30.43 1030 10 16 N/A
1:53 am 01:53 Clear 47 8.3 22 -5.6 37 37 WNW 8 13 30.43 1031 10 16 N/A
2:53 am 02:53 Clear 49 9.4 19 -7.2 31 31 NNW 13 20 30.41 1030 10 16 N/A
3:53 am 03:53 Clear 47 8.3 19 -7.2 33 33 N N/A 30.41 1030 10 16 N/A
4:53 am 04:53 Clear 50 10 18 -7.8 28 28 NW 8 13 30.40 1030 10 16 N/A
5:53 am 05:53 Clear 47 8.3 18 -7.8 31 31 N 7 11 30.42 1030 10 16 N/A
6:53 am 06:53 Sunny 48 8.9 17 -8.3 29 29 N N/A 30.42 1030 10 16 N/A
7:53 am 07:53 Sunny 50 10 19 -7.2 29 29 S 3 6 30.42 1030 10 16 N/A
8:53 am 08:53 Sunny 56 13.3 18 -7.8 22 22 N N/A 30.44 1031 10 16 N/A
9:53 am 09:53 Sunny 58 14.4 17 -8.3 20 20 SE 3 6 30.43 1031 10 16 N/A
10:53 am 10:53 Sunny 60 15.6 15 -9.4 17 17 SE 7 11 30.39 1029 10 16 N/A
11:53 am 11:53 Sunny 63 17.2 15 -9.4 15 15 SE 7 11 30.33 1027 10 16 N/A
12:53 pm 12:53 Sunny 66 18.9 15 -9.4 14 14 ESE 7 11 30.29 1026 10 16 N/A
1:53 pm 13:53 Sunny 67 19.4 15 -9.4 13 13 SSE 5 7 30.24 1024 10 16 N/A
2:53 pm 14:53 Sunny 68 20 16 -8.9 13 13 SE 5 7 30.22 1023 10 16 N/A
3:53 pm 15:53 Sunny 68 20 16 -8.9 13 13 WSW 5 7 30.20 1023 10 16 N/A
4:53 pm 16:53 Clear 67 19.4 17 -8.3 15 15 NNE 3 6 30.19 1022 10 16 N/A
5:53 pm 17:53 Clear 61 16.1 19 -7.2 20 20 SW 3 6 30.19 1023 10 16 N/A
6:53 pm 18:53 Clear 58 14.4 21 -6.1 24 24 WNW 6 9 30.19 1022 10 16 N/A
7:53 pm 19:53 Clear 55 12.8 21 -6.1 26 26 NNW 7 11 30.17 1022 10 16 N/A
8:53 pm 20:53 Clear 53 11.7 20 -6.7 27 27 NW 5 7 30.17 1022 10 16 N/A
9:53 pm 21:53 Clear 53 11.7 20 -6.7 27 27 WNW 7 11 30.16 1021 10 16 N/A
10:53 pm 22:53 Clear 51 10.6 21 -6.1 31 31 W 3 6 30.14 1021 10 16 N/A
11:53 pm 23:53 Clear 52 11.1 20 -6.7 28 28 WNW 5 7 30.14 1021 10 16 N/A

Powered by AerisWeather